Location: Lahitte
(43.6596°N, 0.6805°E)
Time: 20:18:38
(UTC+00:00)

Cosmos 468 Rocket - Pass Details

Date: 15 May 2026
Orbit: 740 x 773 km, 74.0° (Epoch: 8 June)

Event Time Altitude Azimuth Distance (km) Brightness Sun altitude
Exits shadow 22:30:14 65° 197° (SSW) 845 3.9 -24.4°
Maximum altitude 22:31:02 89° 115° (ESE) 777 3.9 -24.5°
Drops below altitude 10° 22:36:18 10° 21° (NNE) 2,315 7.1 -24.8°
Sets 22:38:41 0° 21° (NNE) 3,241 8.0 -25.0°
